Stations météo

réclame
Mon MeteoGroup
Muenchen-Stadt, Allemagne (10865): Température de l'air & dewpoint: 04.12.2018 23:00:00 - 10.12.2018 23:00:00 (CET)Muenchen-Stadt, Allemagne (10865): Température de l'air 5cm & Température de l'air -5cm: 04.12.2018 23:00:00 - 10.12.2018 23:00:00 (CET)Muenchen-Stadt, Allemagne (10865): Température de l'air -20cm & Température de l'air -100cm: 04.12.2018 23:00:00 - 10.12.2018 23:00:00 (CET)Muenchen-Stadt, Allemagne (10865): Vitesse du vent & gusts: 04.12.2018 23:00:00 - 10.12.2018 23:00:00 (CET)Muenchen-Stadt, Allemagne (10865): Direction du vent: 04.12.2018 23:00:00 - 10.12.2018 23:00:00 (CET)Muenchen-Stadt, Allemagne (10865): reduced air pressure: 04.12.2018 23:00:00 - 10.12.2018 23:00:00 (CET)Muenchen-Stadt, Allemagne (10865): visibility: 04.12.2018 23:00:00 - 10.12.2018 23:00:00 (CET)Muenchen-Stadt, Allemagne (10865): Ensoleillement: 04.12.2018 23:00:00 - 10.12.2018 23:00:00 (CET)Muenchen-Stadt, Allemagne (10865): Quantités de précipitations: 04.12.2018 23:00:00 - 10.12.2018 23:00:00 (CET)
Date & Time tt [°C] td [°C] tt 5cm [°C] tt -5cm [°C] tt -20cm [°C] tt -100cm [°C] ff [km/h] ff [knt] fx [km/h] fx [knt] dd ppp [hPa] vv [km] sd [min] rr [mm]
10.12.2018 23:00:00 0,8 -0,5 -0,2 2,0 5,6 9,2 17 9 38 20 WNW 1022,5 45 0 0,1
10.12.2018 22:00:00 0,6 -0,2 -0,3 2,3 5,6 9,1 29 15 46 25 W 1022,0 9 0 2,6
10.12.2018 21:00:00 2,5 -0,1 1,5 2,8 5,7 9,1 18 10 36 19 W 1021,6 30 0 0,0
10.12.2018 20:00:00 2,9 -0,8 1,3 2,9 5,7 9,1 19 10 35 19 W 1021,4 61 0 0,0
10.12.2018 19:00:00 2,8 -0,3 1,6 3,2 5,8 9,1 15 8 32 17 WSW 1021,5 56 0 0,0
10.12.2018 18:00:00 2,7 -0,2 1,4 3,3 5,8 9,1 16 9 28 15 W 1022,0 54 0 0,0
10.12.2018 17:00:00 2,8 0,5 1,9 3,6 5,8 9,1 12 6 30 16 W 1022,1 48 0 0,0
10.12.2018 16:00:00 2,8 0,6 1,7 3,9 5,8 9,1 16 9 37 20 W 1022,1 56 5 0,0
10.12.2018 15:00:00 3,2 0,6 2,3 4,1 5,8 9,1 23 12 41 22 W 1022,0 52 0 0,2
10.12.2018 14:00:00 3,0 1,1 2,4 4,1 5,8 9,1 16 9 39 21 W 1022,0 37 0 0,4
10.12.2018 13:00:00 2,8 0,8 2,0 4,1 5,9 9,1 15 8 39 21 W 1022,2 35 0 0,2
10.12.2018 12:00:00 3,2 0,5 2,3 4,0 5,9 9,1 21 11 37 20 W 1022,4 33 0 0,0
10.12.2018 11:00:00 3,0 0,6 2,2 3,9 5,9 9,1 20 11 46 25 W 1022,1 46 0 0,0
10.12.2018 10:00:00 3,0 0,6 2,1 3,6 6,0 9,1 22 12 46 25 W 1021,1 53 0 0,0
10.12.2018 09:00:00 3,0 1,0 2,1 3,4 6,0 9,1 21 12 49 27 W 1020,5 44 0 0,0
10.12.2018 08:00:00 3,0 1,0 1,9 3,3 6,1 9,1 23 13 42 23 W 1019,6 17 0 0,0
10.12.2018 07:00:00 2,4 1,5 1,7 3,2 6,2 9,1 14 8 27 15 WNW 1019,4 46 0 0,2
10.12.2018 06:00:00 1,3 0,8 0,7 2,8 6,3 9,2 9 5 29 16 NW 1019,3 13 0 1,4
10.12.2018 05:00:00 1,2 0,6 0,1 3,5 6,4 9,2 14 8 45 24 W 1019,2 2,1 0 2,4
10.12.2018 04:00:00 3,3 1,7 2,3 4,3 6,4 9,2 17 9 42 23 W 1018,2 73 0 0,0
10.12.2018 03:00:00 4,3 3,0 3,4 4,6 6,5 9,2 19 11 45 25 W 1017,0 45 0 0,9
10.12.2018 02:00:00 4,6 2,9 3,5 4,7 6,5 9,3 22 12 45 24 W 1015,6 34 0 0,9
10.12.2018 01:00:00 4,3 2,9 3,4 4,8 6,6 9,3 30 16 44 24 WNW 1015,0 6 0 1,3
10.12.2018 00:00:00 4,5 3,1 3,6 4,6 6,6 9,3 14 8 45 25 WNW 1014,2 22 0 0,0
09.12.2018 23:00:00 4,6 2,7 3,3 5,0 6,6 9,3 27 14 54 29 WNW 1013,1 67 0 1,2
09.12.2018 22:00:00 5,4 3,6 4,2 5,2 6,7 9,3 24 13 46 25 W 1011,6 51 0 0,2
09.12.2018 21:00:00 5,4 3,8 4,3 5,2 6,7 9,3 21 11 49 26 W 1010,8 37 0 0,3
09.12.2018 20:00:00 5,4 3,7 4,2 5,1 6,7 9,3 21 12 46 25 W 1009,4 22 0 0,4
09.12.2018 19:00:00 5,0 3,1 3,9 5,0 6,7 9,4 27 14 53 29 W 1008,5 20 0 0,3
09.12.2018 18:00:00 5,3 2,9 3,9 5,2 6,8 9,4 27 15 55 30 W 1007,6 34 0 0,3
09.12.2018 17:00:00 5,0 3,1 3,9 5,4 6,8 9,4 24 13 55 30 W 1007,2 22 0 0,8
09.12.2018 16:00:00 6,3 2,7 4,3 5,6 6,8 9,4 34 19 55 30 W 1006,2 57 0 0,0
09.12.2018 15:00:00 5,9 3,5 4,6 5,8 6,7 9,4 31 17 51 27 WSW 1006,0 16 0 0,5
09.12.2018 14:00:00 5,6 2,9 4,3 5,7 6,7 9,4 32 17 62 33 W 1006,3 12 0 1,4
09.12.2018 13:00:00 6,7 2,4 5,8 6,0 6,7 9,4 29 16 53 29 WSW 1006,0 35 0 0,0
09.12.2018 12:00:00 7,1 1,9 6,5 5,8 6,7 9,4 31 17 63 34 WSW 1006,6 58 0 0,0
09.12.2018 11:00:00 6,5 2,3 6,0 5,5 6,8 9,4 32 18 65 35 W 1007,1 53 0 0,0
09.12.2018 10:00:00 5,5 2,5 4,1 5,2 6,8 9,4 25 13 54 29 WSW 1006,3 31 0 0,0
09.12.2018 09:00:00 5,4 2,7 3,9 5,1 6,8 9,4 23 13 44 24 WSW 1005,8 70 0 0,1
09.12.2018 08:00:00 4,9 3,4 3,9 5,3 6,8 9,4 26 14 51 28 W 1005,6 24 0 3,3
09.12.2018 07:00:00 4,6 3,2 3,8 5,9 6,8 9,4 29 16 64 34 WNW 1005,2 6 0 2,0
09.12.2018 06:00:00 8,3 4,3 5,9 6,1 6,8 9,4 38 21 68 37 W 1002,6 19 0 0,1
09.12.2018 05:00:00 7,6 5,0 6,0 6,0 6,7 9,4 18 10 65 35 WSW 1002,5 66 0 0,3
09.12.2018 04:00:00 8,8 4,3 6,4 5,9 6,7 9,4 34 18 73 40 WSW 1003,8 68 0 0,3
09.12.2018 03:00:00 8,9 4,0 6,1 5,5 6,8 9,4 32 17 58 31 WSW 1003,9 45 0 0,0
09.12.2018 02:00:00 8,1 3,2 6,4 5,2 6,8 9,4 29 16 58 32 WSW 1004,8 74 0 0,1
09.12.2018 01:00:00 8,0 2,8 6,2 5,2 6,8 9,4 22 12 55 30 WSW 1006,6 25 0 0,0
09.12.2018 00:00:00 8,0 2,4 6,8 5,2 6,8 9,4 30 16 60 32 WSW 1007,9 66 0 0,0
08.12.2018 23:00:00 8,0 1,0 6,7 5,0 6,9 9,4 29 16 53 29 WSW 1009,1 75 0 0,0
08.12.2018 22:00:00 7,8 0,5 6,2 5,0 6,9 9,4 29 15 60 32 WSW 1010,3 75 0 0,0
08.12.2018 21:00:00 7,9 0,6 6,7 5,2 6,9 9,4 29 16 55 30 WSW 1011,4 75 0 0,0
08.12.2018 20:00:00 7,5 1,0 6,3 5,1 7,0 9,4 30 16 57 31 WSW 1012,4 65 0 0,0
08.12.2018 19:00:00 6,9 1,3 5,8 5,1 7,0 9,4 31 17 62 34 WSW 1013,0 64 0 0,0
08.12.2018 18:00:00 7,1 0,7 6,1 5,1 7,0 9,4 31 17 69 37 WSW 1013,6 73 0 0,0
08.12.2018 17:00:00 7,0 0,4 5,4 5,3 7,0 9,4 30 16 69 38 WSW 1013,5 75 0 0,0
08.12.2018 16:00:00 7,3 -0,3 6,1 5,6 7,0 9,4 29 16 79 43 WSW 1013,8 72 0 0,0
08.12.2018 15:00:00 7,8 -0,8 6,8 5,9 7,0 9,4 30 16 56 30 W 1013,3 65 8 0,0
08.12.2018 14:00:00 7,7 -1,3 6,8 6,1 7,0 9,4 27 15 59 32 WSW 1013,7 62 1 0,0
08.12.2018 13:00:00 7,8 -1,4 7,8 5,9 7,1 9,4 34 18 68 37 WSW 1013,8 63 28 0,0
08.12.2018 12:00:00 7,5 -1,3 8,4 5,4 7,1 9,4 29 16 59 32 WSW 1014,6 53 31 0,0
08.12.2018 11:00:00 6,9 -1,1 6,5 4,3 7,3 9,4 28 15 62 33 WSW 1015,1 75 58 0,0
08.12.2018 10:00:00 5,9 -0,7 4,0 4,2 7,4 9,4 23 12 51 28 W 1015,8 54 49 0,0
08.12.2018 09:00:00 5,5 -1,0 3,8 4,1 7,5 9,4 26 14 54 29 W 1016,0 47 36 0,0
08.12.2018 08:00:00 4,9 -0,8 3,1 4,3 7,6 9,4 25 14 46 25 WSW 1015,9 58 0 0,0
08.12.2018 07:00:00 5,1 -0,7 3,5 4,7 7,7 9,3 22 12 49 27 WSW 1016,0 59 0 0,0
08.12.2018 06:00:00 5,0 0,3 2,9 5,3 7,8 9,3 23 12 54 29 WSW 1015,8 70 0 0,0
08.12.2018 05:00:00 5,5 0,8 4,7 5,6 7,9 9,3 29 16 53 29 W 1015,1 59 0 0,0
08.12.2018 04:00:00 6,0 0,0 4,5 5,9 8,0 9,3 30 16 57 31 W 1014,3 75 0 0,0
08.12.2018 03:00:00 6,5 1,2 5,3 6,2 8,0 9,3 27 15 61 33 W 1013,5 64 0 0,0
08.12.2018 02:00:00 7,3 1,5 6,4 6,8 8,1 9,3 28 15 70 38 W 1011,7 70 0 0,0
08.12.2018 01:00:00 8,3 2,7 7,1 7,3 8,1 9,3 29 16 69 37 WNW 1009,7 75 0 0,0
08.12.2018 00:00:00 10,5 4,7 9,3 7,5 8,1 9,3 35 19 63 34 W 1007,6 75 0 0,0
07.12.2018 23:00:00 10,7 4,9 9,2 7,6 8,1 9,3 30 16 60 33 WSW 1007,5 75 0 0,0
07.12.2018 22:00:00 10,3 5,5 8,1 7,5 8,2 9,3 24 13 45 25 WSW 1008,6 45 0 0,0
07.12.2018 21:00:00 9,4 5,6 8,1 7,5 8,2 9,3 19 10 37 20 W 1008,8 54 0 0,0
07.12.2018 20:00:00 9,5 5,6 7,8 7,5 8,2 9,3 17 9 40 22 W 1008,6 63 0 0,0
07.12.2018 19:00:00 10,1 5,9 7,7 7,8 8,2 9,3 13 7 23 13 W 1008,3 66 0 0,0
07.12.2018 18:00:00 10,9 6,2 8,7 8,6 8,2 9,3 10 5 18 10 SW 1008,5 64 0 0,0
07.12.2018 17:00:00 11,5 6,2 10,0 8,9 8,1 9,3 14 8 34 18 W 1009,8 36 4 0,0
07.12.2018 16:00:00 12,6 5,5 11,3 9,3 8,0 9,3 15 8 30 16 W 1010,6 62 10 0,0
07.12.2018 15:00:00 13,4 5,7 12,2 9,8 7,9 9,3 11 6 19 11 WSW 1010,8 75 41 0,0
07.12.2018 14:00:00 13,1 6,0 12,9 10,1 7,8 9,3 10 6 26 14 SW 1011,8 74 1 0,0
07.12.2018 13:00:00 12,6 6,3 12,4 9,6 7,7 9,3 16 9 30 16 W 1013,5 75 0 0,0
07.12.2018 12:00:00 12,2 6,6 11,9 9,1 7,6 9,3 10 5 23 13 W 1014,9 71 1 0,0
07.12.2018 11:00:00 11,9 6,7 11,4 8,5 7,6 9,3 10 5 27 14 WSW 1016,1 75 8 0,0
07.12.2018 10:00:00 11,4 6,3 10,5 7,9 7,6 9,3 16 9 27 15 WSW 1017,2 70 2 0,0
07.12.2018 09:00:00 10,9 6,2 9,8 7,5 7,6 9,3 12 7 25 13 WSW 1018,1 69 0 0,0
07.12.2018 08:00:00 10,6 6,2 9,2 7,2 7,6 9,3 14 8 22 12 WSW 1018,8 70 0 0,0
07.12.2018 07:00:00 10,7 6,2 8,7 7,4 7,6 9,3 14 7 31 17 WSW 1019,0 75 0 0,0
07.12.2018 06:00:00 10,8 6,2 9,4 7,4 7,6 9,3 15 8 30 16 WSW 1019,3 75 0 0,0
07.12.2018 05:00:00 10,6 6,1 9,1 7,4 7,5 9,3 13 7 22 12 WSW 1019,7 71 0 0,0
07.12.2018 04:00:00 10,4 6,2 9,1 7,4 7,5 9,3 14 8 29 16 WSW 1020,2 75 0 0,0
07.12.2018 03:00:00 10,3 6,1 9,0 7,3 7,5 9,3 17 9 27 14 WSW 1021,0 71 0 0,0
07.12.2018 02:00:00 10,2 6,3 9,0 7,3 7,5 9,3 14 8 27 15 WSW 1021,2 73 0 0,0
07.12.2018 01:00:00 10,0 6,2 8,5 7,3 7,5 9,3 14 8 30 16 WSW 1021,8 71 0 0,0
07.12.2018 00:00:00 10,0 6,2 8,6 7,4 7,5 9,3 12 6 23 12 WSW 1022,1 75 0 0,0
06.12.2018 23:00:00 9,7 6,3 8,5 7,4 7,5 9,3 14 7 24 13 WSW 1022,3 72 0 0,0
06.12.2018 22:00:00 9,6 6,4 8,6 7,5 7,5 9,3 10 5 25 13 WSW 1022,6 60 0 0,0
06.12.2018 21:00:00 9,5 6,7 8,2 7,5 7,5 9,3 13 7 23 13 WSW 1022,9 57 0 0,0
06.12.2018 20:00:00 9,7 6,9 8,7 7,6 7,4 9,3 12 6 29 16 WSW 1022,9 59 0 0,0
06.12.2018 19:00:00 9,6 7,1 8,4 7,6 7,4 9,3 13 7 24 13 WSW 1022,7 58 0 0,0
06.12.2018 18:00:00 9,6 6,9 8,0 7,7 7,3 9,3 16 8 29 16 WSW 1022,2 61 0 0,0
06.12.2018 17:00:00 10,0 6,9 9,0 8,1 7,2 9,3 13 7 31 17 W 1022,2 66 0 0,0
06.12.2018 16:00:00 10,4 6,5 9,4 8,5 7,0 9,3 19 10 36 19 W 1021,9 61 0 0,0
06.12.2018 15:00:00 11,3 6,5 10,7 9,0 6,9 9,3 18 10 34 18 WSW 1020,8 64 34 0,0
06.12.2018 14:00:00 11,1 7,0 11,7 9,2 6,8 9,3 15 8 29 16 WSW 1020,9 52 25 0,0
06.12.2018 13:00:00 9,7 7,4 8,7 7,8 6,7 9,3 13 7 32 18 W 1021,6 42 0 0,0
06.12.2018 12:00:00 9,5 6,9 8,2 7,4 6,6 9,3 15 8 28 15 W 1021,5 46 0 0,0
06.12.2018 11:00:00 9,0 7,0 7,6 6,8 6,6 9,3 13 7 23 13 W 1021,5 37 0 0,0
06.12.2018 10:00:00 8,3 6,7 7,4 6,4 6,6 9,3 8 5 18 10 WSW 1020,9 54 0 0,0
06.12.2018 09:00:00 7,8 6,3 6,4 5,8 6,5 9,3 8 5 14 8 SSW 1020,5 47 0 0,0
06.12.2018 08:00:00 6,9 6,3 5,9 5,5 6,5 9,3 6 4 11 6 SW 1020,7 28 0 0,0
06.12.2018 07:00:00 6,6 6,1 5,6 5,5 6,6 9,3 2 1 10 6 SW 1020,2 26 0 0,3
06.12.2018 06:00:00 6,5 5,8 5,5 5,4 6,6 9,3 7 4 14 8 SSE 1019,6 27 0 0,3
06.12.2018 05:00:00 6,0 5,1 5,1 5,2 6,6 9,3 8 4 11 6 SSW 1020,4 13 0 1,0
06.12.2018 04:00:00 4,7 3,9 4,1 5,0 6,6 9,3 5 3 15 8 SW 1021,2 7 0 0,4
06.12.2018 03:00:00 4,6 3,6 3,9 4,9 6,7 9,3 5 3 14 8 S 1021,5 18 0 0,3
06.12.2018 02:00:00 4,5 3,0 3,9 4,8 6,7 9,3 5 3 12 6 SSW 1021,0 23 0 0,0
06.12.2018 01:00:00 4,1 2,8 3,4 4,9 6,7 9,3 4 2 16 9 E 1021,2 18 0 0,0
06.12.2018 00:00:00 4,0 2,6 3,6 4,9 6,8 9,3 8 4 14 8 E 1021,4 12 0 0,0
05.12.2018 23:00:00 4,0 3,1 3,7 5,0 6,8 9,3 7 4 16 9 ESE 1022,1 10 0 0,0
05.12.2018 22:00:00 4,1 3,1 3,8 5,1 6,8 9,3 10 5 19 10 ESE 1022,4 12 0 0,0
05.12.2018 21:00:00 4,2 3,1 3,9 5,2 6,9 9,3 9 5 17 9 ESE 1023,3 11 0 0,0
05.12.2018 20:00:00 4,5 3,3 4,1 5,3 6,9 9,3 10 5 18 10 ESE 1023,8 13 0 0,0
05.12.2018 19:00:00 4,6 3,1 4,2 5,4 6,9 9,2 9 5 22 12 ESE 1024,6 18 0 0,0
05.12.2018 18:00:00 5,0 3,3 4,6 5,5 6,9 9,2 10 5 19 10 ESE 1024,8 19 0 0,0
05.12.2018 17:00:00 5,2 3,2 4,7 5,6 6,9 9,2 9 5 22 12 ESE 1025,3 23 0 0,0
05.12.2018 16:00:00 5,5 3,2 5,0 5,9 6,9 9,2 11 6 19 10 ESE 1025,6 29 0 0,0
05.12.2018 15:00:00 5,8 3,4 5,3 6,3 6,8 9,2 8 5 16 9 ESE 1026,0 28 0 0,0
05.12.2018 14:00:00 5,9 3,2 5,7 6,5 6,8 9,2 10 5 18 10 SE 1026,4 28 0 0,0
05.12.2018 13:00:00 6,0 3,0 5,9 6,6 6,7 9,2 10 5 19 10 SE 1027,1 34 0 0,0
05.12.2018 12:00:00 5,8 2,6 6,1 6,4 6,7 9,2 11 6 19 10 SE 1027,8 29 0 0,0
05.12.2018 11:00:00 5,3 2,5 5,5 5,7 6,7 9,2 13 7 21 11 SE 1028,5 31 0 0,0
05.12.2018 10:00:00 4,6 2,5 4,2 5,1 6,8 9,2 11 6 19 11 ESE 1028,6 23 0 0,0
05.12.2018 09:00:00 4,2 2,5 3,6 4,7 6,9 9,2 11 6 18 10 ESE 1029,0 12 0 0,0
05.12.2018 08:00:00 4,2 2,3 3,7 4,5 6,9 9,2 8 4 18 10 ESE 1028,7 19 0 0,0
05.12.2018 07:00:00 4,4 1,8 3,6 4,6 7,0 9,2 11 6 16 8 SE 1028,0 30 0 0,0
05.12.2018 06:00:00 4,1 2,1 3,2 4,7 7,1 9,2 7 4 16 9 E 1028,1 30 0 0,0
05.12.2018 05:00:00 4,1 1,9 2,9 4,8 7,2 9,2 9 5 14 8 E 1028,0 29 0 0,0
05.12.2018 04:00:00 4,2 2,3 2,9 4,8 7,2 9,1 7 4 12 7 E 1027,9 30 0 0,0
05.12.2018 03:00:00 4,0 2,4 2,9 4,9 7,3 9,1 5 3 9 5 ENE 1028,3 34 0 0,0
05.12.2018 02:00:00 3,9 2,0 2,5 5,0 7,4 9,1 4 2 13 7 E 1028,4 45 0 0,0
05.12.2018 01:00:00 4,0 2,2 2,8 5,2 7,5 9,1 5 3 9 5 NE 1028,7 51 0 0,0
05.12.2018 00:00:00 4,6 2,6 3,3 5,7 7,5 9,1 4 2 8 4 E 1028,5 46 0 0,0
04.12.2018 23:00:00 4,7 2,1 3,5 5,9 7,6 9,1 6 3 8 4 NNW 1028,1 53 0 0,0

tt = Température de l'air
td = dewpoint
tt 5cm = Température de l'air 5cm
tt -5cm = Température de l'air -5cm
tt -20cm = Température de l'air -20cm
tt -100cm = Température de l'air -100cm
ff = Vitesse du vent
fx = gusts
dd = Direction du vent
ppp = reduced air pressure
vv = visibility
sd = Ensoleillement
rr = Quantités de précipitations

stations d'obs. à proximité